CAPE
223 423 337 45 165 184 82 34 26 120 112 144 122 45 31 251 491 707 576 817 1178 1762 2030 1688 1661 1637 1677 1862 1877 1966 1945 2046 2041 1754 1588 1697 1331 1363 1396 1321 1199 1006 697
435 514 225 135 162 237 117 39 54 82 120 51 56 146 185 338 389 578 700 593 1324 1710 1617 1960 1747 1883 1899 1903 1777 1845 1703 1864 1737 1544 1783 1222 1277 1151 821 666 808 700 372
695 221 281 368 310 167 23 99 91 90 62 3 0 23 102 127 204 57 294 630 951 1888 1678 1665 1778 1938 2128 2059 1947 1600 1712 1417 1538 1582 1313 1336 1029 753 383 294 425 270 67
708 604 339 380 161 0 117 212 133 10 6 0 0 0 2 47 179 27 26 219 701 1273 1358 1577 1696 1757 1965 2131 2112 1676 1435 1563 1240 1499 1274 1002 1052 704 97 29 73 154 82
695 610 318 185 122 154 77 235 57 14 0 0 15 30 24 89 155 309 389 298 371 743 784 830 1417 1678 1628 2112 1968 1521 1553 1198 1222 1159 1012 856 832 299 7 78 194 112 31
843 747 463 223 96 57 46 12 0 9 4 0 54 95 67 78 48 34 77 388 515 402 334 493 876 1503 1298 2248 1924 1625 1387 1276 1087 1026 960 761 451 121 101 104 53 14 2
731 864 717 720 399 96 0 4 0 0 0 0 21 44 25 7 0 564 210 392 622 230 77 184 560 943 994 1926 1697 1412 1493 1364 1069 842 843 610 199 12 24 7 0 0 0
478 675 773 849 566 289 42 107 1 0 0 0 55 68 40 106 243 558 76 0 2 292 297 154 44 511 664 1341 1565 1320 1450 1416 1096 777 513 206 11 0 0 0 0 0 0
293 335 669 499 978 713 238 238 119 125 122 0 0 198 169 129 87 227 404 121 215 353 655 668 684 460 379 426 1489 1387 1159 1274 1105 904 421 79 0 0 0 0 0 0 0
32 316 698 683 866 965 630 707 462 372 266 0 0 0 0 120 212 99 47 77 3 141 532 388 625 847 542 167 212 1127 1065 791 770 950 764 403 43 0 0 0 0 0 0
100 172 658 470 707 817 766 1051 1071 935 348 428 207 308 455 398 271 291 57 63 9 8 0 73 0 103 706 555 830 777 1024 806 540 617 801 766 411 9 0 0 0 0 0
368 408 417 882 447 690 630 542 716 793 621 1056 955 937 626 438 297 220 138 32 82 33 1 3 52 330 346 705 933 1020 1053 792 647 371 621 743 752 396 0 0 0 0 0
1 61 763 871 776 505 509 215 221 391 766 845 797 625 548 611 437 159 85 96 141 57 45 1 53 237 701 1012 1036 1301 1266 935 756 375 331 533 792 743 18 0 0 0 0
11 1 361 902 843 796 662 502 337 287 406 944 1039 991 871 589 454 364 255 157 199 54 3 225 72 7 73 61 840 1404 1384 1231 865 475 279 304 541 557 198 0 0 0 0
65 74 250 691 921 1025 951 730 489 447 489 378 781 844 834 786 625 547 502 508 464 249 172 294 84 59 218 385 450 81 660 838 772 614 282 278 252 441 399 0 0 0 0
292 220 230 362 709 912 956 811 774 1018 745 352 517 599 482 545 554 648 676 661 470 319 243 138 354 371 342 474 401 262 96 70 449 634 401 293 249 294 431 138 0 0 0
528 449 447 472 704 955 785 806 635 785 714 787 840 714 606 520 623 784 646 521 716 445 354 142 138 320 318 275 204 349 393 390 285 653 647 399 298 142 291 251 71 0 0
762 630 485 531 755 678 394 536 562 444 439 565 752 804 612 749 806 669 539 483 477 448 409 245 255 379 389 378 442 508 480 441 229 59 74 330 93 149 116 146 231 25 0
717 690 536 513 406 359 383 276 175 95 130 134 254 624 542 478 519 479 513 609 565 537 473 521 396 347 406 480 573 556 451 379 615 626 382 167 209 274 153 88 101 107 0
546 781 682 582 400 266 149 31 3 0 25 42 11 655 716 575 495 422 418 550 490 432 469 513 439 397 334 288 276 260 233 285 295 568 751 554 262 127 98 94 88 84 7
285 411 682 681 501 324 325 265 259 297 239 294 209 465 669 679 690 610 575 518 448 332 382 419 401 335 343 278 307 318 292 294 236 281 375 353 275 175 75 25 116 109 1
307 344 282 395 672 715 529 357 390 470 540 631 580 814 862 652 699 662 545 592 577 531 389 341 346 362 295 269 245 249 194 202 254 214 308 322 150 165 94 42 84 63 0
1137 1088 1220 1119 1047 979 800 787 740 824 922 910 901 867 777 884 737 744 616 516 399 330 368 377 291 241 228 249 235 193 166 135 129 133 226 212 68 83 55 56 41 23 0
1192 1194 1179 1091 1059 966 998 1062 1063 921 934 647 663 756 786 724 630 614 567 407 279 189 95 53 38 92 124 158 154 169 165 147 90 69 74 115 44 54 22 21 9 4 0
1434 1198 1054 1000 973 1107 1018 918 750 894 828 746 672 542 535 538 167 134 244 182 94 0 0 0 0 0 0 0 0 2 36 91 50 85 65 101 6 7 0 1 0 0 0
1496 1303 1372 1295 1371 1335 673 600 630 683 677 507 123 0 0 0 0 0 0 0 0 0 0 0 0 0 0 0 0 0 1 3 23 40 106 77 0 0 0 1 2 3 1
CIN
-89 -79 -86 -186 -139 -141 -187 -227 -210 -210 -234 -184 -199 -212 -251 -174 -143 -123 -128 -67 -35 -3 -0 -0 -0 -0 -0 -0 -0 -0 -0 -0 -0 -1 -2 -0 -3 -0 -0 -0 -0 -3 -11
-92 -64 -110 -147 -155 -126 -224 -229 -198 -210 -206 -207 -223 -216 -214 -194 -189 -164 -134 -116 -39 -10 -3 -0 -1 -0 -0 -0 -0 -0 -1 -0 -0 -3 -0 -2 -1 -0 -5 -18 -4 -15 -64
-55 -114 -98 -93 -116 -216 -308 -269 -268 -277 -244 -88 -0 -292 -243 -235 -230 -262 -192 -148 -70 -9 -9 -5 -2 -1 -0 -0 -1 -1 -1 -2 -1 -0 -3 -1 -8 -12 -58 -78 -51 -79 -157
-56 -76 -75 -96 -167 -0 -262 -255 -285 -272 -222 -0 -0 -0 -129 -236 -213 -228 -356 -253 -147 -58 -40 -13 -4 -4 -1 -0 -1 -2 -3 -2 -5 -2 -4 -11 -2 -14 -138 -182 -136 -106 -149
-60 -65 -95 -152 -210 -202 -235 -221 -312 -327 -0 -0 -170 -191 -160 -193 -208 -205 -204 -229 -205 -132 -90 -65 -30 -9 -11 -0 -0 -21 -3 -7 -4 -6 -14 -32 -16 -66 -120 -129 -80 -117 -162
-50 -52 -90 -152 -214 -231 -253 -338 -0 -359 -180 -0 -247 -200 -242 -265 -320 -295 -259 -203 -175 -179 -157 -112 -75 -34 -45 -0 -1 -21 -23 -13 -13 -7 -8 -29 -69 -145 -127 -101 -122 -144 -208
-48 -43 -71 -92 -129 -185 -0 -412 -0 -0 -0 -0 -292 -254 -255 -302 -1 -202 -233 -188 -150 -165 -197 -191 -119 -73 -69 -6 -7 -30 -31 -27 -35 -44 -27 -37 -105 -172 -168 -166 -0 -0 -0
-53 -47 -44 -62 -109 -122 -213 -184 -34 -0 -0 -0 -143 -156 -127 -153 -184 -161 -217 -59 -76 -164 -164 -185 -234 -108 -102 -53 -31 -17 -15 -21 -49 -63 -81 -150 -228 -0 -0 -0 -0 -0 -0
-59 -59 -44 -65 -65 -82 -101 -123 -132 -115 -93 -0 -0 -86 -55 -64 -129 -183 -141 -194 -171 -153 -119 -121 -138 -133 -123 -123 -51 -43 -29 -17 -23 -41 -96 -171 -0 -0 -0 -0 -0 -0 -0
-128 -75 -50 -54 -59 -66 -81 -74 -109 -109 -128 -0 -0 -0 -0 -152 -44 -65 -169 -182 -73 -197 -132 -149 -140 -133 -146 -184 -155 -78 -70 -85 -69 -40 -42 -81 -216 -0 -0 -0 -0 -0 -0
-120 -94 -62 -67 -61 -66 -60 -49 -63 -70 -122 -87 -88 -86 -99 -107 -125 -61 -59 -97 -236 -203 -0 -228 -0 -209 -146 -165 -134 -117 -83 -106 -123 -93 -55 -47 -67 -84 -0 -0 -0 -0 -0
-77 -70 -76 -59 -75 -56 -56 -55 -55 -60 -76 -59 -49 -48 -43 -35 -43 -60 -61 -109 -75 -95 -51 -85 -234 -197 -182 -156 -134 -108 -88 -88 -102 -128 -85 -55 -45 -56 -0 -0 -0 -0 -0
-177 -121 -63 -60 -72 -86 -75 -80 -76 -67 -51 -51 -53 -50 -60 -46 -60 -68 -101 -84 -49 -102 -124 -13 -190 -194 -175 -164 -126 -94 -77 -88 -93 -122 -116 -82 -42 -32 -11 -0 -0 -0 -0
-97 -17 -63 -46 -53 -52 -59 -73 -92 -94 -73 -46 -41 -40 -41 -56 -71 -65 -57 -54 -28 -86 -84 -56 -221 -107 -206 -202 -145 -93 -82 -82 -102 -119 -122 -108 -68 -44 -71 -0 -0 -0 -0
-58 -64 -62 -47 -44 -41 -50 -66 -82 -87 -82 -88 -48 -40 -35 -36 -55 -55 -49 -54 -35 -21 -34 -44 -62 -141 -130 -156 -126 -142 -104 -81 -103 -122 -123 -113 -95 -63 -50 -0 -0 -0 -0
-65 -62 -61 -61 -54 -50 -57 -65 -62 -54 -66 -96 -69 -45 -54 -43 -42 -50 -45 -33 -44 -27 -26 -73 -41 -71 -87 -101 -128 -154 -161 -166 -140 -120 -111 -124 -113 -84 -59 -69 -0 -0 -0
-50 -58 -49 -49 -52 -50 -50 -55 -65 -55 -57 -57 -51 -47 -43 -41 -37 -44 -53 -49 -29 -36 -24 -75 -115 -74 -76 -62 -81 -93 -109 -134 -157 -129 -114 -120 -109 -109 -80 -58 -58 -0 -0
-39 -52 -65 -57 -45 -50 -79 -66 -60 -65 -60 -58 -46 -42 -41 -35 -30 -38 -51 -42 -39 -41 -28 -33 -57 -48 -54 -60 -52 -49 -57 -91 -121 -156 -158 -116 -130 -116 -112 -88 -54 -78 -0
-41 -58 -65 -55 -64 -79 -84 -111 -118 -105 -90 -102 -85 -47 -53 -46 -47 -50 -47 -37 -44 -40 -44 -31 -44 -65 -66 -62 -46 -51 -56 -78 -75 -70 -90 -121 -108 -118 -141 -136 -88 -66 -0
-58 -49 -58 -61 -73 -88 -116 -140 -67 -0 -98 -66 -60 -56 -45 -43 -53 -52 -48 -37 -37 -34 -38 -30 -44 -56 -59 -73 -75 -74 -56 -64 -66 -61 -64 -90 -126 -173 -185 -165 -135 -110 -142
-100 -82 -63 -65 -80 -82 -92 -106 -93 -70 -70 -71 -89 -65 -52 -46 -43 -42 -36 -38 -40 -37 -30 -27 -31 -51 -65 -69 -54 -57 -60 -66 -82 -89 -67 -97 -116 -133 -181 -213 -130 -104 -8
-130 -106 -106 -89 -69 -74 -102 -111 -96 -78 -65 -53 -45 -35 -38 -47 -40 -39 -34 -30 -33 -27 -31 -30 -36 -31 -56 -69 -93 -52 -50 -41 -36 -123 -88 -77 -156 -128 -176 -197 -154 -123 -0
-91 -78 -59 -54 -48 -61 -77 -68 -63 -53 -41 -39 -33 -45 -49 -45 -47 -42 -48 -46 -59 -69 -56 -41 -44 -57 -62 -71 -60 -62 -60 -54 -58 -68 -50 -47 -167 -120 -190 -206 -182 -159 -0
-104 -87 -75 -67 -57 -67 -62 -55 -42 -45 -41 -78 -62 -52 -53 -57 -52 -50 -46 -49 -59 -75 -104 -121 -112 -102 -94 -76 -57 -44 -38 -38 -76 -92 -64 -21 -139 -128 -246 -234 -153 -99 -0
-88 -85 -83 -73 -62 -46 -53 -60 -60 -27 -34 -54 -68 -93 -87 -72 -150 -134 -76 -72 -83 -0 -0 -0 -0 -0 -0 -0 -0 -6 -63 -4 -29 -47 -63 -18 -44 -136 -0 -44 -0 -0 -0
-62 -77 -47 -47 -38 -33 -91 -90 -80 -59 -47 -76 -171 -0 -0 -0 -0 -0 -0 -0 -0 -0 -0 -0 -0 -0 -0 -0 -0 -0 -0 -0 -19 -85 -62 -4 -0 -0 -5 -0 -0 -0 -0
Wind_Speed
20 23 17 15 15 17 21 22 17 9 8 12 16 16 15 14 17 17 19 21 22 21 20 20 20 19 19 19 19 18 18 18 17 17 17 17 17 16 16 16 16 17 18
20 17 13 16 16 17 17 10 16 14 8 9 11 13 17 16 17 18 19 20 21 20 20 19 19 19 19 19 19 19 19 18 18 18 18 17 17 16 16 16 16 17 18
13 6 12 15 19 17 20 25 21 16 14 13 9 11 13 14 17 16 18 19 20 20 19 19 19 18 18 19 19 19 18 18 18 19 19 18 17 17 16 16 17 18 18
6 9 9 14 16 18 20 22 20 20 15 16 12 14 16 12 14 17 17 18 19 19 19 19 18 18 18 18 18 18 19 19 19 20 19 18 17 17 16 16 17 18 18
6 6 9 13 14 16 20 18 19 11 18 16 13 14 15 14 15 16 17 17 18 19 19 19 18 18 18 18 18 19 18 19 20 19 18 17 17 17 17 17 18 18 18
8 4 6 12 12 15 18 19 18 21 21 17 16 16 16 16 14 15 15 17 19 20 18 19 19 18 18 18 18 19 19 18 18 17 17 17 17 17 17 17 18 18 17
10 3 2 6 8 12 15 18 19 21 22 20 17 13 16 16 14 15 17 18 19 18 19 19 19 18 18 18 18 19 19 18 17 16 16 16 17 17 18 18 18 18 17
2 3 3 6 4 9 13 16 18 20 20 20 18 17 9 15 15 17 18 15 18 17 19 19 18 18 19 17 16 17 18 19 18 17 15 15 16 17 18 18 18 17 16
14 6 1 12 10 3 11 14 16 18 19 19 18 17 15 16 16 14 16 13 13 17 17 19 17 17 18 18 16 17 17 16 16 17 16 15 15 16 17 18 16 14 14
14 7 2 15 14 8 5 11 15 17 19 17 12 19 17 17 17 12 12 13 12 13 18 19 18 16 18 16 15 17 16 14 15 15 15 15 15 15 14 14 14 13 12
31 26 30 25 22 14 11 5 5 15 11 9 14 11 17 18 18 15 17 17 16 15 15 16 16 17 17 17 14 15 17 16 14 13 13 13 13 13 12 10 10 10 9
32 32 32 32 30 24 12 9 11 10 9 8 8 11 14 18 18 18 20 20 20 17 8 16 10 9 14 19 14 13 13 12 14 13 12 11 12 12 11 9 8 8 8
34 33 33 32 32 32 20 22 23 23 21 25 18 18 20 22 19 19 19 22 20 21 19 6 6 17 10 5 9 7 11 12 12 14 14 13 11 12 10 8 7 6 5
35 34 34 33 33 32 27 19 22 23 25 23 21 17 17 23 20 20 20 21 24 22 19 18 15 7 6 8 5 2 5 11 13 13 13 13 14 12 9 9 6 6 5
32 32 30 29 28 27 23 12 16 18 15 14 12 15 18 21 20 19 19 21 21 23 22 21 19 15 11 10 7 3 4 2 8 11 11 14 12 10 5 5 3 1 1
18 22 27 23 24 24 21 9 26 28 20 14 12 17 17 22 23 21 20 16 18 23 25 20 20 17 16 14 17 11 15 11 3 10 7 10 12 11 8 6 5 4 3
25 9 15 16 15 21 17 11 8 3 12 10 12 11 10 18 20 19 20 19 17 20 26 28 22 22 18 14 17 17 18 15 14 8 6 6 8 8 9 8 7 6 5
20 9 6 6 12 10 4 7 13 4 4 3 3 9 2 15 17 19 17 16 17 16 16 24 22 21 19 19 22 29 30 27 20 14 10 8 8 10 10 10 10 9 8
11 13 9 6 7 8 10 8 11 12 5 5 10 7 13 2 5 13 15 15 16 16 14 16 22 24 26 24 26 26 27 25 23 19 17 14 13 11 10 11 12 11 11
11 14 8 9 8 6 7 7 7 11 11 5 7 6 7 5 7 10 12 13 15 15 17 19 22 24 25 28 26 30 33 29 30 24 22 22 21 18 15 12 12 13 12
35 13 11 10 8 7 7 8 7 8 9 11 5 7 7 8 9 13 15 17 17 19 19 21 23 26 26 27 27 30 33 34 33 27 27 25 24 22 21 16 15 14 13
24 8 9 12 15 18 15 8 6 6 6 7 9 11 13 13 14 10 11 11 15 18 20 20 22 24 24 25 27 30 34 36 36 26 27 29 23 23 22 20 17 16 15
26 10 13 13 11 14 7 6 7 11 14 12 13 15 18 16 17 19 19 14 16 15 15 21 22 23 27 27 30 32 29 29 30 29 28 33 26 27 25 23 21 19 18
21 29 29 29 34 34 24 19 18 20 20 20 20 23 20 17 19 18 19 20 20 22 23 23 23 26 28 30 28 28 29 33 35 30 25 30 27 28 27 28 26 24 22
20 25 29 35 37 36 26 23 22 23 25 29 28 29 29 24 21 20 19 22 25 26 26 28 30 31 32 31 29 28 28 26 28 29 22 27 28 29 29 28 26 24 23
19 25 23 21 23 25 24 22 22 23 26 26 23 21 20 18 18 19 20 21 24 26 30 31 31 30 30 30 29 26 27 25 26 30 26 23 27 26 33 29 26 24 23
Wind_Direction
211 170 101 70 60 74 92 94 162 220 214 208 192 187 196 194 173 174 163 156 164 177 180 180 182 189 194 195 196 195 194 195 194 194 194 190 183 176 180 184 185 181 176
220 226 79 87 84 99 116 35 189 183 233 217 208 202 176 169 164 162 161 155 161 175 182 183 182 189 195 199 200 198 198 199 197 189 184 181 171 171 170 171 171 172 166
257 20 74 84 106 89 116 142 170 193 200 221 268 223 197 195 165 169 163 174 176 179 177 178 183 184 193 197 198 201 206 200 192 182 175 161 155 158 165 164 160 156 152
310 61 64 85 89 100 105 122 140 182 201 167 221 186 165 202 197 177 168 161 166 175 179 179 183 181 185 191 195 196 194 195 187 164 162 164 163 156 173 169 164 148 135
301 43 69 92 84 98 124 113 137 123 212 212 217 205 166 162 177 183 180 171 166 172 175 176 179 176 176 180 184 180 189 180 171 161 156 155 153 159 163 153 145 143 143
285 351 70 97 89 96 115 117 119 182 212 228 219 217 208 194 194 188 171 173 165 174 170 177 177 176 173 173 169 167 167 145 155 162 152 151 147 150 147 146 150 156 156
278 299 4 77 79 90 109 123 134 151 177 198 219 229 219 207 219 192 170 161 173 171 170 175 174 172 177 176 168 167 164 155 146 142 141 144 152 152 151 151 156 162 162
150 277 294 282 75 93 108 123 133 157 180 184 199 125 331 248 288 164 166 141 177 177 184 180 175 175 172 166 158 161 164 169 163 146 130 135 145 160 165 163 155 150 137
151 142 268 268 278 49 115 124 135 140 158 172 194 216 241 255 247 151 160 141 164 185 193 183 178 173 172 170 158 161 165 158 152 155 149 140 145 153 161 162 147 122 112
152 152 184 264 270 292 89 126 141 155 217 271 196 203 212 202 254 3 175 144 150 158 184 184 181 174 173 162 159 170 162 148 154 152 150 150 150 147 145 143 138 123 113
191 179 229 246 256 275 290 337 24 149 112 11 147 17 205 238 198 230 296 320 322 180 175 177 176 181 171 172 158 168 170 168 158 153 151 148 147 145 138 125 119 117 103
210 207 209 223 240 258 283 297 303 315 132 112 360 341 324 282 290 291 279 305 311 331 41 189 140 139 174 191 173 160 164 163 168 163 161 153 153 152 144 129 113 113 112
212 213 218 220 226 232 272 273 271 275 282 269 293 300 299 288 301 305 315 296 310 307 314 113 59 318 330 95 152 151 168 173 173 177 176 172 166 166 156 143 129 116 104
214 213 213 212 217 233 252 280 276 275 271 281 289 302 305 289 300 303 305 305 290 301 319 324 341 17 11 7 25 103 159 179 184 183 185 184 185 180 167 163 147 139 128
206 205 198 195 194 193 187 168 288 289 298 303 309 305 298 293 295 302 309 307 303 300 306 315 319 336 346 357 12 32 359 278 190 191 194 194 194 192 190 184 182 196 45
175 181 191 186 186 189 184 168 201 235 291 307 312 304 303 289 286 294 304 317 314 300 296 316 317 324 325 324 321 342 324 330 276 200 207 201 202 205 206 212 214 210 232
264 177 177 178 177 187 181 176 179 218 306 313 311 318 321 294 286 294 303 310 314 309 301 298 312 313 319 323 319 318 318 320 317 303 278 245 228 236 231 235 241 241 253
274 279 244 204 183 186 214 190 185 200 254 283 295 317 153 304 295 298 307 312 313 316 319 311 313 316 314 313 310 299 300 305 306 305 295 281 274 262 253 256 252 260 265
273 278 275 234 218 203 192 196 191 193 222 236 200 203 195 230 298 308 309 312 313 316 315 315 312 311 307 310 308 306 307 308 309 306 302 298 296 286 264 253 254 255 263
262 275 259 205 208 223 217 213 211 200 205 269 228 235 230 258 285 301 306 307 310 312 313 311 310 311 310 306 306 302 299 302 302 304 301 300 300 299 293 273 261 258 263
214 199 205 208 228 261 232 210 214 208 209 208 248 261 264 264 270 296 302 304 305 307 307 307 307 308 308 307 306 305 300 300 300 302 300 298 298 299 298 288 280 266 265
272 254 218 210 204 204 205 211 239 255 268 244 295 301 302 303 303 286 295 297 305 307 307 306 307 307 309 308 308 305 302 299 298 303 299 298 298 296 294 294 287 278 273
271 279 284 285 217 221 253 265 286 300 301 301 303 308 307 307 308 307 306 303 305 304 305 309 308 308 309 310 309 306 305 303 301 300 296 293 293 292 293 291 287 282 278
279 274 277 279 274 275 293 299 301 301 301 304 305 302 306 310 310 309 309 311 313 314 315 314 312 310 310 309 308 307 306 304 302 304 294 287 289 289 291 289 285 282 278
281 281 280 268 262 271 291 296 297 299 298 290 294 291 289 304 311 315 314 313 313 314 316 315 313 312 311 310 310 309 306 305 305 307 303 295 291 292 293 290 287 280 276
283 282 286 292 289 288 293 296 298 298 293 292 300 306 310 317 321 321 321 320 318 318 317 316 317 318 318 317 316 312 309 305 305 308 307 302 302 299 298 298 294 289 283